Location: Baix
(44.7118°N, 4.7648°E)
Time: 10:34:37
(UTC+00:00)

Vanguard 2 Rocket - Pass Details

Date: 03 December 2020
Orbit: 554 x 3325 km, 32.9° (Epoch: 21 January)

Event Time Altitude Azimuth Distance (km) Brightness Sun altitude
Rises 11:14:13 0° 275° (W) 7,308 11.4 23.0°
Reaches altitude 10° 11:19:48 10° 269° (W) 6,183 11.2 23.0°
Maximum altitude 11:36:07 39° 211° (SSW) 3,501 11.1 23.1°
Drops below altitude 10° 11:47:18 10° 148° (SSE) 4,267 11.3 23.0°
Sets 11:50:23 0° 140° (SE) 4,917 11.3 22.9°
